Location: Cuzcurrita-R�o Tir�n
(42.5415°N, 2.9642°W)
Time: 10:29:19
(UTC+00:00)

Gbstr 26 Del rocket - Pass Details

Date: 27 February 2020
Orbit: 492 x 1264 km, 51.8° (Epoch: 29 March)

Event Time Altitude Azimuth Distance (km) Brightness Sun altitude
Rises 18:51:48 0° 243° (WSW) 2,604 7.6 -10.6°
Reaches altitude 10° 18:53:52 10° 246° (WSW) 1,766 6.6 -11.0°
Maximum altitude 18:57:47 67° 329° (NNW) 630 3.2 -11.7°
Enters shadow 19:02:07 12° 53° (NE) 1,957 5.2 -12.5°
